Home > Weather > Cape Town > Past weeks

Flag for South Africa Weather for the Past 2 Weeks in Cape Town, South Africa

Now
73 °F

Passing clouds.


Feels Like: 76 °F
Forecast: 68 / 78 °F
Wind: 31 mph from South

Location: Cape Town International Airport

Current Time: Feb 7, 2016 at 5:46:34 PM

Latest Report: Feb 7, 2016 at 5:00 PM


Visibility: N/A

Pressure: 30.04 "Hg

Humidity: 65%

Dew point: 61 °F

Location of Cape TownLocation

Historic Weather in Cape Town — Graph

°F

Cape Town Temperature Yesterday

Maximum temperature yesterday: 82 °F (at 3:00 PM)
Minimum temperature yesterday: 66 °F (at 1:00 AM)
Average temperature yesterday: 73 °F

High & Low Weather Summary for the Past Weeks

 TemperatureHumidityPressure
High91 °F (Jan 31, 2:00 PM)94% (Jan 25, 2:00 AM)30.09 "Hg (Jan 25, 2:00 AM)
Low61 °F (Jan 26, 1:00 AM)31% (Feb 5, 1:00 PM)29.74 "Hg (Feb 1, 3:00 AM)
Average72 °F69%29.93 "Hg
* Reported Jan 23 4:00 PM — Feb 7 4:00 PM, Cape Town, Weather by CustomWeather, © 2016

Note: Actual official high and low records may vary slightly from our data, if they occured in-between our weather recording intervals... More about our weather records

Advertising

Cape Town Weather History for the Previous 24 Hours

 ConditionsComfort  
Time TempWeatherWind HumidityBarometerVisibility
4:00 PM
Sun, Feb 7
75 °FPassing clouds.32 mph61%30.04 "HgN/A
3:00 PM77 °FPassing clouds.30 mph61%30.04 "HgN/A
2:00 PM77 °FPassing clouds.31 mph57%30.07 "HgN/A
1:00 PM77 °FPassing clouds.32 mph57%30.07 "HgN/A
12:00 PM77 °FPassing clouds.29 mph57%30.07 "HgN/A
11:00 AM75 °FPassing clouds.30 mph61%30.09 "HgN/A
10:00 AM73 °FPassing clouds.26 mph65%30.09 "HgN/A
9:00 AM72 °FScattered clouds.25 mph69%30.09 "HgN/A
8:00 AM70 °FPartly sunny.22 mph73%30.07 "HgN/A
7:00 AM68 °FPartly sunny.26 mph78%30.07 "HgN/A
6:00 AM66 °FPartly sunny.25 mph83%30.04 "HgN/A
5:00 AM66 °FPartly cloudy.26 mph88%30.04 "HgN/A
4:00 AM66 °FPassing clouds.24 mph88%30.04 "HgN/A
3:00 AM68 °FPassing clouds.22 mph83%30.04 "HgN/A
2:00 AM68 °FPartly cloudy.21 mph83%30.07 "HgN/A
1:00 AM68 °FPassing clouds.17 mph88%30.07 "HgN/A
12:00 AM68 °FPassing clouds.17 mph88%30.07 "HgN/A
11:00 PM
Sat, Feb 6
70 °FPassing clouds.15 mph73%30.07 "HgN/A
10:00 PM70 °FPassing clouds.14 mph73%30.04 "HgN/A
9:00 PM72 °FPassing clouds.17 mph69%30.04 "HgN/A
8:00 PM72 °FPassing clouds.14 mph69%30.01 "HgN/A
7:00 PM75 °FClear.20 mph57%30.01 "Hg10 mi
6:00 PM75 °FPassing clouds.16 mph65%29.98 "HgN/A
5:00 PM79 °FPassing clouds.18 mph58%29.95 "HgN/A
Weather by CustomWeather, © 2016

See weather overviewHow to use our weather pages